STARLINK-37758, 69219

Orbit data source: Space-Track

STARLINK-37758, 69219 is a payload satellite owned by SpaceX/Seattle (US) in SSO that was launched on Tue, 26 May 2026 UTC via an FALCON 9 launch vehicle from the Air Force Western Test Range (AFWTR). Payload-class satellites include a variety of spacecraft equipped with specific instruments for various scientific and technological missions. These include communications satellites like Starlink; space stations such as the ISS; scientific satellites like the Hubble; Earth observation satellites from companies like Planet Labs, Umbra, and HawkEye 360; GPS; miniature CubeSats for education and research; and military/defense satellites.

Loading next visibility...
Identifier
69219, 2026-115J
Orbit
SSO
Country
Flag of USUS
Related business
Manufacturer
SpaceX/Seattle
Mission
Operational spacecraft
Bus & Motor
STARLINK V2MO, Unknown motor
Mass
575 kg wet, ~530 kg dry
Launch date (UTC)
2026-05-26 (4 weeks ago)
Launch vehicle
FALCON 9
Launch site
Air Force Western Test Range (AFWTR)
Object type
Payload
Rocket body
Debris
Shape & HBR
Unknown
Radar Cross Section
Large (>1 m²)

Expand to show TLE details & history
Last TLE update: 10 hours ago

TLE from 10 hours ago
0 STARLINK-37758
1 69219U 26115J   26171.41668980 -.01406205  00000-0 -46596-1 0  9992
2 69219  97.2860 188.8165 0001522  45.8048 120.9236 15.34349404  5204
Epoch: 2026-06-20T10:00Z
TLE epoch observation values (Epoch: 2026-06-20T10:00:01.998Z)
Latitude
13.10946°
Longitude
-48.12666°
Altitude
465.744 km
Speed
7.634 km/s
True Right ascension
00h 42m 03s
True Declination
13° 01' 50"
Sunlit
Object was in daylight at epoch
Visualization orbit readout
Latitude
Unknown
Longitude
Unknown
Altitude
Unknown
Speed
Unknown
Apparent Right ascension
Unknown
Apparent Declination
Unknown
Sunlit
N/A
Visualization observer readout
Local Sidereal Time
07:13:38
Azimuth
Unknown
Elevation
Unknown
Doppler factor
Unknown
Orbital elements
Apogee altitude
460.836 km
Perigee altitude
458.754 km
Semi-major axis
6,837.932 km
Eccentricity
0.00015
Inclination
97.286°
RAAN
188.8165°
Arg. of periapsis
45.8048°
True anomaly
120.93856°
Mean anomaly
120.9236°
Eccentric anomaly
120.93108°
Mean motion
3.83845 °/min
Orbital period
93.79 mins
BSTAR
-0.046596
Loading maneuver chart data...
Computing Atmospheric mass density...
Loading historical data...
Loading historical data...
Loading historical data...
Loading historical data...
Loading historical data...
Loading historical data...
Loading historical data...

Documentation

Showing up to 5 results
|